Location: Strawberry
(45.6646°N, 111.9596°W)
Time: 01:44:22
(UTC+00:00)

Vanguard 1 Rocket - Pass Details

Date: 26 September 2022
Orbit: 650 x 4225 km, 34.3° (Epoch: 05 December)

Event Time Altitude Azimuth Distance (km) Brightness Sun altitude
Rises 03:46:21 0° 220° (SW) 7,528 12.2 -25.7°
Reaches altitude 10° 03:53:06 10° 211° (SSW) 5,915 11.5 -26.7°
Enters shadow 04:04:42 27° 168° (SSE) 3,421 9.9 -28.5°
